Date String (YYYY-MM-DD hh:mm:ss) UTC,Instrument flags,Ambient pressure (hPa),Sample flow (lpm),Bypass flow (lpm),Sample temperature (°C),Ambient temperature (°C),ASC tube jacket temperature (°C),LED temperature (°C),Box temperature (°C),Sample RH (%),Span deviation,Mass concentration (μg/m³),Mass concentration (μg/m³),Mass concentration (μg/m³)
DateTimeUTC,F1_M11,P_M11,Q1_M11,Q2_M11,T1_M11,T2_M11,T3_M11,T4_M11,T5_M11,U1_M11,ZSPAN_M11,X0_M11,X2_M11,X1_M11
2023-03-02 02:00:00,,0817.4,4.99,0.00,22.3,20.6,00.0,31.1,24.0,15.6,0000.0,0009.10,0002.80,0002.12
2023-03-02 02:01:00,,0817.5,4.99,0.00,22.2,20.6,00.0,31.1,23.9,15.6,0000.0,0008.79,0002.84,0002.08
2023-03-02 02:02:00,,0817.5,5.00,0.00,22.2,20.5,00.0,31.0,23.9,15.6,0000.0,0008.96,0002.92,0002.07
2023-03-02 02:03:00,,0817.5,4.99,0.00,22.2,20.5,00.0,31.0,23.9,15.6,0000.0,0009.06,0002.93,0002.05
2023-03-02 02:04:00,,0817.5,5.00,0.00,22.2,20.4,00.0,31.0,23.9,15.6,0000.0,0009.21,0002.86,0002.02
2023-03-02 02:05:00,,0817.5,5.00,0.00,22.2,20.9,00.0,31.0,24.0,15.6,0000.0,0009.19,0002.88,0002.00
2023-03-02 02:06:00,,0817.5,4.95,0.00,22.3,22.0,00.0,31.0,24.2,15.5,0000.0,0008.82,0002.85,0001.99
2023-03-02 02:07:00,,0817.5,4.99,0.00,22.4,23.0,00.0,31.0,24.5,15.4,0000.0,0008.34,0002.86,0001.99
2023-03-02 02:08:00,,0817.5,4.98,0.00,22.5,22.9,00.0,31.1,24.5,15.3,0000.0,0008.47,0002.90,0001.99
2023-03-02 02:09:00,,0817.5,4.98,0.00,22.5,22.4,00.0,31.1,24.4,15.3,0000.0,0008.11,0002.91,0002.01
2023-03-02 02:10:00,,0817.4,5.00,0.00,22.5,22.0,00.0,31.1,24.4,15.3,0000.0,0007.99,0003.02,0002.02
2023-03-02 02:11:00,,0817.4,5.01,0.00,22.5,21.7,00.0,31.1,24.3,15.3,0000.0,0007.99,0003.03,0002.03
2023-03-02 02:12:00,,0817.4,5.00,0.00,22.5,21.5,00.0,31.1,24.3,15.3,0000.0,0007.90,0003.03,0002.05
2023-03-02 02:13:00,,0817.4,4.99,0.00,22.5,21.3,00.0,31.2,24.2,15.3,0000.0,0007.85,0002.97,0002.05
2023-03-02 02:14:00,,0817.4,4.99,0.00,22.5,21.2,00.0,31.2,24.2,15.3,0000.0,0008.52,0002.99,0002.06
2023-03-02 02:15:00,,0817.5,5.00,0.00,22.5,21.0,00.0,31.2,24.2,15.3,0000.0,0008.05,0003.05,0002.07
2023-03-02 02:16:00,,0817.5,5.01,0.00,22.5,21.0,00.0,31.2,24.2,15.3,0000.0,0008.05,0003.07,0002.09
2023-03-02 02:17:00,,0817.5,5.00,0.00,22.4,20.9,00.0,31.2,24.2,15.3,0000.0,0007.46,0003.05,0002.11
2023-03-02 02:18:00,,0817.4,4.99,0.00,22.4,20.9,00.0,31.2,24.1,15.3,0000.0,0007.92,0003.05,0002.12
2023-03-02 02:19:00,,0817.4,4.99,0.00,22.4,20.8,00.0,31.2,24.1,15.3,0000.0,0008.08,0003.02,0002.13
2023-03-02 02:20:00,,0817.5,5.01,0.00,22.4,20.7,00.0,31.1,24.1,15.3,0000.0,0008.03,0002.99,0002.14
2023-03-02 02:21:00,,0817.5,5.00,0.00,22.4,20.7,00.0,31.1,24.1,15.3,0000.0,0007.92,0002.92,0002.15
2023-03-02 02:22:00,,0817.5,5.00,0.00,22.3,20.7,00.0,31.1,24.1,15.3,0000.0,0007.86,0002.86,0002.16
2023-03-02 02:23:00,,0817.5,5.00,0.00,22.3,20.7,00.0,31.1,24.1,15.4,0000.0,0007.87,0002.87,0002.18
2023-03-02 02:24:00,,0817.5,5.00,0.00,22.3,20.7,00.0,31.1,24.0,15.4,0000.0,0008.60,0002.92,0002.19
2023-03-02 02:25:00,,0817.5,5.00,0.00,22.3,20.6,00.0,31.1,24.0,15.4,0000.0,0007.82,0002.93,0002.21
2023-03-02 02:26:00,,0817.5,5.00,0.00,22.3,20.6,00.0,31.1,24.0,15.4,0000.0,0007.78,0002.96,0002.24
2023-03-02 02:27:00,,0817.5,5.00,0.00,22.3,20.6,00.0,31.1,24.0,15.4,0000.0,0008.16,0002.99,0002.27
2023-03-02 02:28:00,,0817.4,5.00,0.00,22.3,20.6,00.0,31.1,24.0,15.4,0000.0,0009.10,0003.11,0002.30
2023-03-02 02:29:00,,0817.5,5.01,0.00,22.3,21.0,00.0,31.0,24.0,15.4,0000.0,0009.14,0003.16,0002.35
2023-03-02 02:30:00,,0817.5,4.98,0.00,22.4,22.2,00.0,31.0,24.3,15.3,0000.0,0009.01,0003.19,0002.36
2023-03-02 02:31:00,,0817.5,4.99,0.00,22.5,23.1,00.0,31.1,24.5,15.2,0000.0,0009.21,0003.24,0002.40
2023-03-02 02:32:00,,0817.5,4.98,0.00,22.6,22.9,00.0,31.1,24.5,15.2,0000.0,0009.70,0003.27,0002.42
2023-03-02 02:33:00,,0817.4,5.00,0.00,22.6,22.4,00.0,31.1,24.5,15.1,0000.0,0009.89,0003.33,0002.44
2023-03-02 02:34:00,,0817.4,4.99,0.00,22.6,22.1,00.0,31.2,24.4,15.1,0000.0,0009.94,0003.37,0002.47
2023-03-02 02:35:00,,0817.5,5.00,0.00,22.6,21.8,00.0,31.2,24.3,15.0,0000.0,0009.43,0003.36,0002.48
2023-03-02 02:36:00,,0817.5,5.01,0.00,22.5,21.5,00.0,31.2,24.3,15.0,0000.0,0009.51,0003.37,0002.51
2023-03-02 02:37:00,,0817.5,5.00,0.00,22.5,21.3,00.0,31.2,24.3,15.0,0000.0,0009.60,0003.39,0002.54
2023-03-02 02:38:00,,0817.6,5.02,0.00,22.5,21.2,00.0,31.2,24.2,15.0,0000.0,0009.51,0003.40,0002.55
2023-03-02 02:39:00,,0817.6,5.02,0.00,22.5,21.1,00.0,31.2,24.2,15.0,0000.0,0008.73,0003.38,0002.56
2023-03-02 02:40:00,,0817.6,5.01,0.00,22.5,21.0,00.0,31.2,24.2,15.0,0000.0,0008.32,0003.36,0002.57
2023-03-02 02:41:00,,0817.6,5.00,0.00,22.5,21.0,00.0,31.2,24.2,15.0,0000.0,0008.71,0003.39,0002.59
2023-03-02 02:42:00,,0817.5,5.01,0.00,22.5,20.9,00.0,31.2,24.2,15.0,0000.0,0008.61,0003.38,0002.60
2023-03-02 02:43:00,,0817.5,5.00,0.00,22.4,20.9,00.0,31.2,24.2,15.0,0000.0,0008.12,0003.38,0002.61
2023-03-02 02:44:00,,0817.6,4.99,0.00,22.4,20.8,00.0,31.2,24.1,15.0,0000.0,0008.09,0003.37,0002.62
2023-03-02 02:45:00,,0817.5,5.00,0.00,22.4,20.8,00.0,31.2,24.1,15.0,0000.0,0008.11,0003.40,0002.62
2023-03-02 02:46:00,,0817.6,5.03,0.00,22.4,20.7,00.0,31.2,24.1,15.0,0000.0,0008.06,0003.40,0002.63
2023-03-02 02:47:00,,0817.5,4.98,0.00,22.4,20.7,00.0,31.2,24.1,15.0,0000.0,0007.96,0003.40,0002.64
2023-03-02 02:48:00,,0817.5,5.03,0.00,22.3,20.7,00.0,31.1,24.0,15.0,0000.0,0007.99,0003.43,0002.67
2023-03-02 02:49:00,,0817.5,5.00,0.00,22.3,20.7,00.0,31.1,24.0,15.0,0000.0,0007.90,0003.43,0002.68
2023-03-02 02:50:00,,0817.5,4.98,0.00,22.3,20.6,00.0,31.1,24.0,15.0,0000.0,0007.89,0003.45,0002.70
2023-03-02 02:51:00,,0817.6,5.00,0.00,22.3,20.6,00.0,31.1,24.0,15.0,0000.0,0007.79,0003.44,0002.73
2023-03-02 02:52:00,,0817.6,5.00,0.00,22.3,20.6,00.0,31.1,24.0,15.0,0000.0,0007.09,0003.43,0002.76
2023-03-02 02:53:00,,0817.6,5.01,0.00,22.3,20.9,00.0,31.1,24.0,14.9,0000.0,0007.73,0003.46,0002.79
2023-03-02 02:54:00,,0817.5,4.97,0.00,22.4,22.0,00.0,31.1,24.2,14.9,0000.0,0007.76,0003.48,0002.82
2023-03-02 02:55:00,,0817.6,5.00,0.00,22.5,22.9,00.0,31.1,24.5,14.8,0000.0,0008.42,0003.50,0002.87
2023-03-02 02:56:00,,0817.5,5.01,0.00,22.6,22.8,00.0,31.1,24.5,14.7,0000.0,0009.18,0003.50,0002.91
2023-03-02 02:57:00,,0817.5,5.01,0.00,22.6,22.4,00.0,31.1,24.4,14.7,0000.0,0009.28,0003.54,0002.94
2023-03-02 02:58:00,,0817.5,5.00,0.00,22.6,22.0,00.0,31.2,24.4,14.7,0000.0,0009.38,0003.57,0002.98
2023-03-02 02:59:00,,0817.5,5.01,0.00,22.5,21.7,00.0,31.2,24.3,14.6,0000.0,0009.42,0003.56,0002.98
